| time (UTC) | temp F | wind direction | speed MPH | gust MPH | rain 1hr in | rain 24hr in | rain mn in | humidity % | barometer mb |
| 20260509180112 | 62 | 233 | 5.0 | 12.0 | 0.00 | 0.00 | 0.00 | 79 | 1007.9 |
| 20260509174553 | 62 | 252 | 9.0 | 14.0 | 0.00 | 0.00 | 0.00 | 80 | 1007.8 |
| 20260509173105 | 62 | 215 | 8.0 | 13.0 | 0.00 | 0.00 | 0.00 | 79 | 1007.6 |
| 20260509171553 | 62 | 294 | 4.0 | 12.0 | 0.00 | 0.00 | 0.00 | 81 | 1007.8 |
| 20260509170052 | 61 | 199 | 5.0 | 14.0 | 0.00 | 0.00 | 0.00 | 83 | 1007.8 |
| 20260509164553 | 59 | 190 | 6.0 | 13.0 | 0.00 | 0.00 | 0.00 | 83 | 1008.1 |
| 20260509163058 | 58 | 217 | 6.0 | 9.0 | 0.00 | 0.00 | 0.00 | 83 | 1008.3 |
| 20260509161603 | 57 | 238 | 2.0 | 5.0 | 0.00 | 0.00 | 0.00 | 85 | 1008.5 |
| 20260509154556 | 57 | 240 | 1.0 | 6.0 | 0.00 | 0.00 | 0.00 | 84 | 1008.5 |
| 20260509153102 | 57 | 240 | 2.0 | 6.0 | 0.00 | 0.00 | 0.00 | 84 | 1008.3 |
| 20260509151552 | 57 | 223 | 2.0 | 8.0 | 0.00 | 0.00 | 0.00 | 82 | 1008.0 |
| 20260509150053 | 57 | 236 | 2.0 | 7.0 | 0.00 | 0.00 | 0.00 | 79 | 1008.0 |
| 20260509144558 | 58 | 236 | 2.0 | 12.0 | 0.00 | 0.00 | 0.00 | 79 | 1007.9 |
| 20260509143058 | 57 | 243 | 2.0 | 9.0 | 0.00 | 0.00 | 0.00 | 78 | 1007.6 |
| 20260509141556 | 57 | 209 | 7.0 | 13.0 | 0.00 | 0.00 | 0.00 | 77 | 1007.6 |
| 20260509140106 | 56 | 209 | 4.0 | 11.0 | 0.00 | 0.00 | 0.00 | 78 | 1007.6 |
| 20260509134554 | 55 | 234 | 6.0 | 10.0 | 0.00 | 0.00 | 0.00 | 78 | 1007.6 |
| 20260509133059 | 55 | 227 | 3.0 | 8.0 | 0.00 | 0.00 | 0.00 | 78 | 1007.7 |
| 20260509131555 | 55 | 227 | 3.0 | 6.0 | 0.00 | 0.00 | 0.00 | 78 | 1007.5 |
| 20260509130055 | 55 | 227 | 3.0 | 7.0 | 0.00 | 0.00 | 0.00 | 77 | 1007.4 |
| 20260509124556 | 55 | 221 | 4.0 | 7.0 | 0.00 | 0.00 | 0.00 | 76 | 1007.4 |
| 20260509123053 | 55 | 271 | 1.0 | 9.0 | 0.00 | 0.00 | 0.00 | 76 | 1007.6 |
| 20260509121603 | 55 | 210 | 4.0 | 9.0 | 0.00 | 0.00 | 0.00 | 75 | 1007.4 |
| 20260509120100 | 54 | 0 | 0.0 | 3.0 | 0.00 | 0.00 | 0.00 | 75 | 1007.5 |
| 20260509114557 | 53 | 254 | 2.0 | 8.0 | 0.00 | 0.00 | 0.00 | 75 | 1007.4 |
| 20260509113054 | 53 | 244 | 2.0 | 8.0 | 0.00 | 0.00 | 0.00 | 75 | 1007.2 |
| 20260509111557 | 52 | 256 | 4.0 | 7.0 | 0.00 | 0.00 | 0.00 | 75 | 1007.3 |
| 20260509110051 | 52 | 213 | 3.0 | 7.0 | 0.00 | 0.00 | 0.00 | 75 | 1006.9 |
| 20260509104600 | 52 | 214 | 4.0 | 8.0 | 0.00 | 0.00 | 0.00 | 75 | 1006.9 |
| 20260509103105 | 52 | 209 | 3.0 | 8.0 | 0.00 | 0.00 | 0.00 | 75 | 1007.1 |
| 20260509101611 | 52 | 219 | 3.0 | 9.0 | 0.00 | 0.00 | 0.00 | 75 | 1007.0 |
| 20260509100055 | 52 | 211 | 4.0 | 9.0 | 0.00 | 0.00 | 0.00 | 76 | 1007.3 |
| 20260509094601 | 51 | 217 | 2.0 | 5.0 | 0.00 | 0.00 | 0.00 | 77 | 1007.2 |
| 20260509093055 | 51 | 207 | 1.0 | 4.0 | 0.00 | 0.00 | 0.00 | 78 | 1007.2 |
| 20260509091556 | 50 | 225 | 1.0 | 3.0 | 0.00 | 0.00 | 0.00 | 77 | 1007.2 |
| 20260509090100 | 50 | 240 | 1.0 | 3.0 | 0.00 | 0.00 | 0.00 | 78 | 1007.5 |
| 20260509084601 | 50 | 0 | 0.0 | 0.0 | 0.00 | 0.00 | 0.00 | 77 | 1007.5 |
| 20260509083106 | 51 | 0 | 0.0 | 0.0 | 0.00 | 0.00 | 0.00 | 73 | 1007.7 |
| 20260509081552 | 52 | 0 | 0.0 | 0.0 | 0.00 | 0.00 | 0.00 | 72 | 1007.7 |
| 20260509080054 | 53 | 0 | 0.0 | 4.0 | 0.00 | 0.00 | 0.00 | 69 | 1007.5 |
| 20260509074610 | 53 | 0 | 1.0 | 4.0 | 0.00 | 0.00 | 0.00 | 69 | 1007.6 |
| 20260509073106 | 53 | 219 | 1.0 | 4.0 | 0.00 | 0.00 | 0.00 | 68 | 1007.8 |
| 20260509071558 | 53 | 236 | 2.0 | 6.0 | 0.00 | 0.00 | 0.00 | 68 | 1007.8 |
| 20260509070057 | 53 | 253 | 1.0 | 4.0 | 0.00 | 0.00 | 0.00 | 70 | 1007.8 |
| 20260509064556 | 53 | 237 | 1.0 | 3.0 | 0.00 | 0.00 | 0.00 | 68 | 1007.9 |
| 20260509063101 | 52 | 219 | 1.0 | 3.0 | 0.00 | 0.00 | 0.00 | 73 | 1008.1 |
| 20260509061553 | 52 | 0 | 0.0 | 2.0 | 0.00 | 0.00 | 0.00 | 74 | 1007.9 |
| 20260509060110 | 51 | 0 | 0.0 | 0.0 | 0.00 | 0.00 | 0.00 | 75 | 1008.0 |
| 20260509054554 | 51 | 0 | 0.0 | 0.0 | 0.00 | 0.00 | 0.00 | 79 | 1008.0 |
| 20260509053109 | 52 | 0 | 0.0 | 0.0 | 0.00 | 0.00 | 0.00 | 80 | 1008.1 |
| 20260509051558 | 52 | 0 | 0.0 | 0.0 | 0.00 | 0.00 | 0.00 | 79 | 1008.2 |
| 20260509050054 | 53 | 0 | 0.0 | 0.0 | 0.00 | 0.00 | 0.00 | 76 | 1008.1 |
| 20260509044553 | 54 | 0 | 0.0 | 0.0 | 0.00 | 0.00 | 0.00 | 72 | 1008.2 |
| 20260509043057 | 55 | 0 | 0.0 | 2.0 | 0.00 | 0.00 | 0.00 | 63 | 1008.2 |
| 20260509041551 | 55 | 229 | 0.0 | 2.0 | 0.00 | 0.00 | 0.00 | 64 | 1008.2 |
| 20260509040107 | 55 | 0 | 0.0 | 0.0 | 0.00 | 0.00 | 0.00 | 65 | 1008.1 |
| 20260509034554 | 56 | 0 | 0.0 | 1.0 | 0.00 | 0.00 | 0.00 | 67 | 1008.2 |
| 20260509033116 | 57 | 0 | 0.0 | 2.0 | 0.00 | 0.00 | 0.00 | 61 | 1008.5 |
| 20260509031554 | 58 | 0 | 0.0 | 2.0 | 0.00 | 0.00 | 0.00 | 55 | 1008.8 |
| 20260509030055 | 59 | 0 | 0.0 | 1.0 | 0.00 | 0.00 | 0.00 | 54 | 1008.8 |
| 20260509024604 | 59 | 0 | 0.0 | 2.0 | 0.00 | 0.00 | 0.00 | 53 | 1008.9 |
| 20260509023055 | 59 | 0 | 0.0 | 2.0 | 0.00 | 0.00 | 0.00 | 52 | 1009.0 |
| 20260509021555 | 60 | 0 | 0.0 | 2.0 | 0.00 | 0.00 | 0.00 | 53 | 1009.1 |
| 20260509020107 | 60 | 0 | 0.0 | 1.0 | 0.00 | 0.00 | 0.00 | 52 | 1009.0 |
| 20260509014554 | 60 | 0 | 0.0 | 0.0 | 0.00 | 0.00 | 0.00 | 50 | 1009.2 |
| 20260509013056 | 60 | 0 | 0.0 | 0.0 | 0.00 | 0.00 | 0.00 | 50 | 1009.1 |
| 20260509011601 | 61 | 0 | 0.0 | 0.0 | 0.00 | 0.00 | 0.00 | 51 | 1009.2 |
| 20260509010059 | 63 | 0 | 0.0 | 2.0 | 0.00 | 0.00 | 0.00 | 48 | 1009.2 |
| 20260509004558 | 64 | 0 | 0.0 | 3.0 | 0.00 | 0.00 | 0.00 | 45 | 1009.2 |
| 20260509003058 | 64 | 259 | 0.0 | 4.0 | 0.00 | 0.00 | 0.00 | 44 | 1009.1 |
| 20260509001553 | 64 | 254 | 2.0 | 5.0 | 0.00 | 0.00 | 0.00 | 43 | 1009.2 |
| 20260509000051 | 65 | 236 | 1.0 | 5.0 | 0.00 | 0.00 | 0.00 | 43 | 1009.5 |
| 20260508234600 | 66 | 238 | 2.0 | 7.0 | 0.00 | 0.00 | 0.00 | 42 | 1009.5 |
| 20260508233104 | 66 | 258 | 2.0 | 11.0 | 0.00 | 0.00 | 0.00 | 40 | 1009.5 |
| 20260508231555 | 67 | 257 | 3.0 | 8.0 | 0.00 | 0.00 | 0.00 | 39 | 1009.6 |
| 20260508230058 | 67 | 206 | 3.0 | 10.0 | 0.00 | 0.00 | 0.00 | 39 | 1009.5 |
| 20260508224555 | 67 | 183 | 5.0 | 12.0 | 0.00 | 0.00 | 0.00 | 38 | 1009.2 |
| 20260508223051 | 68 | 199 | 6.0 | 13.0 | 0.00 | 0.00 | 0.00 | 38 | 1009.3 |
| 20260508221557 | 68 | 241 | 3.0 | 12.0 | 0.00 | 0.00 | 0.00 | 39 | 1009.3 |
| 20260508220056 | 68 | 216 | 4.0 | 18.0 | 0.00 | 0.00 | 0.00 | 38 | 1009.3 |
| 20260508214555 | 68 | 218 | 6.0 | 13.0 | 0.00 | 0.00 | 0.00 | 38 | 1009.6 |
| 20260508213056 | 68 | 0 | 5.0 | 14.0 | 0.00 | 0.00 | 0.00 | 39 | 1009.4 |
| 20260508211557 | 68 | 277 | 6.0 | 15.0 | 0.00 | 0.00 | 0.00 | 37 | 1009.4 |
| 20260508210057 | 68 | 217 | 9.0 | 18.0 | 0.00 | 0.00 | 0.00 | 37 | 1009.4 |
| 20260508204555 | 68 | 258 | 4.0 | 13.0 | 0.00 | 0.00 | 0.00 | 38 | 1009.2 |
| 20260508203058 | 67 | 235 | 8.0 | 20.0 | 0.00 | 0.00 | 0.00 | 40 | 1009.5 |
| 20260508201557 | 68 | 221 | 4.0 | 16.0 | 0.00 | 0.00 | 0.00 | 40 | 1009.8 |
| 20260508200057 | 68 | 209 | 5.0 | 12.0 | 0.00 | 0.00 | 0.00 | 40 | 1009.9 |
| 20260508194605 | 67 | 273 | 6.0 | 16.0 | 0.00 | 0.00 | 0.00 | 40 | 1010.2 |
| 20260508193120 | 68 | 223 | 4.0 | 15.0 | 0.00 | 0.00 | 0.00 | 45 | 1010.3 |
| 20260508191606 | 67 | 252 | 6.0 | 15.0 | 0.00 | 0.00 | 0.00 | 43 | 1010.4 |
| 20260508190110 | 67 | 232 | 7.0 | 18.0 | 0.00 | 0.00 | 0.00 | 40 | 1010.9 |
| 20260508184553 | 66 | 234 | 7.0 | 15.0 | 0.00 | 0.00 | 0.00 | 41 | 1011.0 |
| 20260508183100 | 66 | 252 | 4.0 | 15.0 | 0.00 | 0.00 | 0.00 | 43 | 1011.5 |
| 20260508181605 | 65 | 261 | 5.0 | 16.0 | 0.00 | 0.00 | 0.00 | 43 | 1011.8 |